When you browse on this site, cookies collect data to enhance your experience and personalize the content and advertising you see.
Visit our Privacy Policy to learn more. By continuing to use the site, you agree to this use of cookies and data.
  • Em Portugal
  • Lista de países
  • Para 7 dias
  • Temperatura da água
  • Mapas de satélite
  • Mapa do tempo
  • Widgets de tempo
  • user-avatar
    Iniciar Sessão

    Previsão horária em Edige

    Hoje, 24 Junho, Segunda-feira

    Tempo Temperatura Precipitação Vento Pressão Humidade
    00:00 +26°C° 0 mm 4 m/s 760 mmHg 63%
    01:00 +26°C° 0 mm 3 m/s 760 mmHg 64%
    02:00 +25°C° 0 mm 2 m/s 760 mmHg 66%
    03:00 +25°C° 0 mm 1 m/s 760 mmHg 66%
    04:00 +26°C° 0.2 mm 1 m/s 760 mmHg 64%
    05:00 +26°C° 0.2 mm 1 m/s 760 mmHg 62%
    06:00 +27°C° 0.2 mm 1 m/s 760 mmHg 61%
    07:00 +29°C° 0 mm 1 m/s 759 mmHg 54%
    08:00 +31°C° 0 mm 1 m/s 759 mmHg 47%
    09:00 +34°C° 0 mm 1 m/s 760 mmHg 41%
    10:00 +35°C° 0.1 mm 1 m/s 759 mmHg 37%
    11:00 +37°C° 0.1 mm 2 m/s 759 mmHg 32%
    12:00 +39°C° 0.1 mm 2 m/s 759 mmHg 28%
    13:00 +39°C° 0 mm 2 m/s 759 mmHg 27%
    14:00 +40°C° 0 mm 2 m/s 759 mmHg 26%
    15:00 +40°C° 0 mm 3 m/s 759 mmHg 26%
    16:00 +39°C° 0.2 mm 3 m/s 759 mmHg 28%
    17:00 +38°C° 0.2 mm 3 m/s 759 mmHg 30%
    18:00 +37°C° 0.2 mm 3 m/s 759 mmHg 32%
    19:00 +35°C° 0.2 mm 3 m/s 759 mmHg 39%
    20:00 +32°C° 0.2 mm 2 m/s 759 mmHg 46%
    21:00 +30°C° 0.2 mm 2 m/s 760 mmHg 52%
    22:00 +30°C° 0.1 mm 1 m/s 760 mmHg 53%
    23:00 +29°C° 0.1 mm 1 m/s 760 mmHg 54%

    Amanhã, 25 Junho, Terça-feira

    Tempo Temperatura Precipitação Vento Pressão Humidade
    00:00 +29°C° 0.1 mm 1 m/s 760 mmHg 55%
    01:00 +28°C° 0.7 mm 2 m/s 760 mmHg 58%
    02:00 +28°C° 0.7 mm 2 m/s 760 mmHg 61%
    03:00 +27°C° 0.7 mm 2 m/s 760 mmHg 64%
    04:00 +28°C° 0.1 mm 2 m/s 760 mmHg 62%
    05:00 +28°C° 0.1 mm 3 m/s 760 mmHg 60%
    06:00 +29°C° 0.1 mm 3 m/s 760 mmHg 59%
    07:00 +32°C° 0 mm 4 m/s 761 mmHg 53%
    08:00 +33°C° 0 mm 5 m/s 761 mmHg 47%
    09:00 +35°C° 0 mm 6 m/s 761 mmHg 42%
    10:00 +36°C° 0 mm 6 m/s 760 mmHg 39%
    11:00 +38°C° 0 mm 6 m/s 760 mmHg 35%
    12:00 +40°C° 0 mm 6 m/s 760 mmHg 32%
    13:00 +40°C° 0 mm 5 m/s 760 mmHg 30%
    14:00 +41°C° 0 mm 5 m/s 760 mmHg 28%
    15:00 +41°C° 0 mm 5 m/s 760 mmHg 27%
    16:00 +41°C° 0 mm 4 m/s 760 mmHg 27%
    17:00 +41°C° 0 mm 4 m/s 759 mmHg 27%
    18:00 +39°C° 0 mm 3 m/s 759 mmHg 28%
    19:00 +38°C° 0 mm 4 m/s 760 mmHg 30%
    20:00 +37°C° 0 mm 4 m/s 760 mmHg 33%
    21:00 +35°C° 0 mm 4 m/s 761 mmHg 36%
    22:00 +34°C° 0.4 mm 4 m/s 761 mmHg 39%
    23:00 +32°C° 0.4 mm 4 m/s 761 mmHg 43%

    Depois de amanhã, 26 Junho, Quarta-feira

    Tempo Temperatura Precipitação Vento Pressão Humidade
    00:00 +30°C° 0.4 mm 4 m/s 761 mmHg 46%
    01:00 +29°C° 0.2 mm 4 m/s 761 mmHg 49%
    02:00 +29°C° 0.2 mm 4 m/s 761 mmHg 51%
    03:00 +28°C° 0.2 mm 4 m/s 762 mmHg 54%
    04:00 +28°C° 0 mm 3 m/s 762 mmHg 52%
    05:00 +28°C° 0 mm 3 m/s 762 mmHg 51%
    06:00 +29°C° 0 mm 3 m/s 762 mmHg 49%
    07:00 +30°C° 0 mm 3 m/s 762 mmHg 45%
    08:00 +33°C° 0 mm 3 m/s 763 mmHg 40%
    09:00 +34°C° 0 mm 4 m/s 763 mmHg 35%
    10:00 +35°C° 0 mm 4 m/s 763 mmHg 33%
    11:00 +36°C° 0 mm 4 m/s 763 mmHg 31%
    12:00 +37°C° 0 mm 4 m/s 763 mmHg 29%
    13:00 +38°C° 0 mm 4 m/s 762 mmHg 28%
    14:00 +38°C° 0 mm 4 m/s 762 mmHg 28%
    15:00 +39°C° 0 mm 5 m/s 762 mmHg 27%
    16:00 +37°C° 0 mm 5 m/s 762 mmHg 31%
    17:00 +36°C° 0 mm 5 m/s 762 mmHg 34%
    18:00 +34°C° 0 mm 5 m/s 762 mmHg 37%
    19:00 +33°C° 0 mm 5 m/s 762 mmHg 43%
    20:00 +30°C° 0 mm 4 m/s 762 mmHg 48%
    21:00 +29°C° 0 mm 3 m/s 762 mmHg 53%
    22:00 +28°C° 0 mm 3 m/s 762 mmHg 57%
    23:00 +27°C° 0 mm 3 m/s 762 mmHg 61%

    27 Junho, Quinta-feira

    Tempo Temperatura Precipitação Vento Pressão Humidade
    00:00 +26°C° 0 mm 2 m/s 762 mmHg 65%
    01:00 +26°C° 0 mm 2 m/s 762 mmHg 65%
    02:00 +25°C° 0 mm 2 m/s 762 mmHg 65%
    03:00 +25°C° 0 mm 1 m/s 761 mmHg 65%
    04:00 +26°C° 0 mm 2 m/s 761 mmHg 60%
    05:00 +26°C° 0 mm 2 m/s 761 mmHg 55%
    06:00 +27°C° 0 mm 2 m/s 761 mmHg 50%
    07:00 +29°C° 0 mm 3 m/s 761 mmHg 43%
    08:00 +31°C° 0 mm 3 m/s 761 mmHg 35%
    09:00 +33°C° 0 mm 3 m/s 761 mmHg 27%
    10:00 +34°C° 0 mm 3 m/s 761 mmHg 26%
    11:00 +35°C° 0 mm 4 m/s 760 mmHg 25%
    12:00 +36°C° 0 mm 4 m/s 760 mmHg 23%
    13:00 +36°C° 0 mm 5 m/s 759 mmHg 23%
    14:00 +36°C° 0 mm 5 m/s 759 mmHg 24%
    15:00 +36°C° 0 mm 6 m/s 759 mmHg 24%
    16:00 +35°C° 0 mm 6 m/s 758 mmHg 25%
    17:00 +34°C° 0 mm 6 m/s 758 mmHg 27%
    18:00 +33°C° 0 mm 6 m/s 758 mmHg 29%
    19:00 +30°C° 0 mm 6 m/s 758 mmHg 33%
    20:00 +28°C° 0 mm 6 m/s 758 mmHg 37%
    21:00 +26°C° 0 mm 5 m/s 758 mmHg 41%
    22:00 +26°C° 0 mm 5 m/s 757 mmHg 45%
    23:00 +25°C° 0 mm 5 m/s 757 mmHg 48%

    28 Junho, Sexta-feira

    Tempo Temperatura Precipitação Vento Pressão Humidade
    00:00 +23°C° 0 mm 4 m/s 757 mmHg 52%
    01:00 +23°C° 0 mm 4 m/s 756 mmHg 55%
    02:00 +22°C° 0 mm 5 m/s 756 mmHg 58%
    03:00 +22°C° 0 mm 5 m/s 756 mmHg 61%
    04:00 +23°C° 0 mm 5 m/s 756 mmHg 59%
    05:00 +25°C° 0 mm 5 m/s 755 mmHg 56%
    06:00 +26°C° 0 mm 6 m/s 755 mmHg 54%
    07:00 +27°C° 0 mm 6 m/s 755 mmHg 49%
    08:00 +28°C° 0 mm 6 m/s 755 mmHg 44%
    09:00 +30°C° 0 mm 6 m/s 755 mmHg 39%
    10:00 +32°C° 0 mm 6 m/s 754 mmHg 36%
    11:00 +33°C° 0 mm 6 m/s 754 mmHg 33%
    12:00 +34°C° 0 mm 6 m/s 753 mmHg 31%
    13:00 +35°C° 0 mm 6 m/s 753 mmHg 31%
    14:00 +35°C° 0 mm 6 m/s 753 mmHg 31%
    15:00 +35°C° 0 mm 6 m/s 752 mmHg 32%
    16:00 +34°C° 0 mm 6 m/s 752 mmHg 34%
    17:00 +33°C° 0 mm 6 m/s 753 mmHg 36%
    18:00 +32°C° 0 mm 5 m/s 753 mmHg 37%
    19:00 +29°C° 0 mm 5 m/s 753 mmHg 44%
    20:00 +27°C° 0 mm 4 m/s 753 mmHg 50%
    21:00 +26°C° 0 mm 3 m/s 753 mmHg 56%
    22:00 +25°C° 0 mm 3 m/s 753 mmHg 59%
    23:00 +25°C° 0 mm 3 m/s 753 mmHg 61%

    29 Junho, Sábado

    Tempo Temperatura Precipitação Vento Pressão Humidade
    00:00 +24°C° 0 mm 2 m/s 753 mmHg 63%
    01:00 +24°C° 0 mm 2 m/s 753 mmHg 65%
    02:00 +24°C° 0 mm 2 m/s 753 mmHg 66%
    03:00 +24°C° 0 mm 2 m/s 753 mmHg 67%
    04:00 +25°C° 0 mm 3 m/s 753 mmHg 66%
    05:00 +25°C° 0 mm 3 m/s 753 mmHg 65%
    06:00 +26°C° 0 mm 4 m/s 753 mmHg 64%
    07:00 +27°C° 0 mm 4 m/s 753 mmHg 59%
    08:00 +28°C° 0 mm 3 m/s 753 mmHg 55%
    09:00 +29°C° 0 mm 3 m/s 753 mmHg 50%
    10:00 +30°C° 0 mm 4 m/s 753 mmHg 46%
    11:00 +33°C° 0 mm 4 m/s 753 mmHg 41%
    12:00 +34°C° 0 mm 4 m/s 753 mmHg 36%
    13:00 +34°C° 0 mm 5 m/s 753 mmHg 37%
    14:00 +34°C° 0 mm 5 m/s 753 mmHg 37%
    15:00 +33°C° 0 mm 6 m/s 752 mmHg 37%
    16:00 +32°C° 0.1 mm 5 m/s 753 mmHg 41%
    17:00 +30°C° 0.1 mm 5 m/s 753 mmHg 45%
    18:00 +28°C° 0.1 mm 4 m/s 753 mmHg 49%
    19:00 +27°C° 2.8 mm 5 m/s 754 mmHg 61%
    20:00 +25°C° 2.8 mm 5 m/s 754 mmHg 73%
    21:00 +22°C° 2.8 mm 5 m/s 755 mmHg 84%
    22:00 +21°C° 2 mm 5 m/s 755 mmHg 85%
    23:00 +21°C° 2 mm 5 m/s 755 mmHg 85%
    Mostrar mais